QPF
0.01 0.02 0.03 0.03 0.05 0.02 0.01 0.01 0.01 0.01 0.01 0.01 0.01 0.01 0.01 0.02 0.03 0.04 0.03 0.03 0.03 0.03 0.02 0.03 0.03 0.03 0.04 0.03 0.02 0.02 0.04 0.04 0.03 0.03 0.02 0.02 0.03 0.05 0.06 0.07 0.06 0.06 0.06
0.01 0.02 0.03 0.02 0.01 0.01 0.01 0.01 0.01 0.01 0.01 0.01 0.01 0.01 0.01 0.02 0.03 0.03 0.02 0.02 0.02 0.03 0.04 0.04 0.03 0.03 0.03 0.02 0.02 0.02 0.03 0.03 0.03 0.03 0.03 0.03 0.04 0.06 0.08 0.08 0.06 0.05 0.05
0.00 0.03 0.04 0.02 0.02 0.02 0.02 0.02 0.02 0.03 0.02 0.01 0.01 0.01 0.01 0.01 0.01 0.01 0.02 0.03 0.02 0.03 0.03 0.03 0.03 0.03 0.03 0.02 0.02 0.03 0.02 0.02 0.02 0.02 0.03 0.04 0.04 0.05 0.06 0.08 0.07 0.06 0.05
0.01 0.03 0.04 0.03 0.03 0.03 0.04 0.04 0.04 0.03 0.02 0.02 0.01 0.01 0.01 0.01 0.01 0.01 0.01 0.02 0.02 0.02 0.02 0.02 0.02 0.02 0.02 0.02 0.02 0.02 0.03 0.03 0.03 0.02 0.03 0.04 0.04 0.05 0.06 0.06 0.05 0.05 0.05
0.03 0.04 0.05 0.03 0.03 0.04 0.05 0.05 0.06 0.06 0.06 0.05 0.02 0.01 0.01 0.01 0.01 0.01 0.01 0.02 0.02 0.02 0.01 0.01 0.02 0.02 0.02 0.02 0.01 0.03 0.04 0.03 0.02 0.03 0.04 0.05 0.06 0.05 0.05 0.04 0.04 0.04 0.05
0.05 0.05 0.04 0.05 0.06 0.06 0.07 0.07 0.08 0.08 0.09 0.06 0.03 0.02 0.02 0.01 0.01 0.01 0.01 0.01 0.01 0.01 0.01 0.01 0.01 0.02 0.01 0.01 0.01 0.02 0.03 0.03 0.04 0.04 0.04 0.05 0.05 0.04 0.04 0.04 0.03 0.04 0.04
0.06 0.07 0.08 0.09 0.09 0.08 0.06 0.06 0.06 0.07 0.05 0.04 0.03 0.02 0.02 0.02 0.01 0.01 0.01 0.01 0.01 0.01 0.02 0.02 0.01 0.01 0.01 0.01 0.01 0.02 0.02 0.01 0.02 0.02 0.02 0.03 0.03 0.03 0.04 0.03 0.03 0.03 0.04
0.08 0.08 0.07 0.06 0.05 0.04 0.03 0.04 0.05 0.07 0.08 0.05 0.03 0.02 0.02 0.01 0.02 0.02 0.02 0.02 0.01 0.01 0.01 0.01 0.02 0.02 0.02 0.03 0.03 0.02 0.01 0.01 0.01 0.01 0.01 0.02 0.02 0.04 0.04 0.03 0.03 0.03 0.03
0.08 0.06 0.04 0.04 0.03 0.03 0.04 0.05 0.06 0.07 0.06 0.04 0.03 0.03 0.03 0.02 0.03 0.03 0.03 0.02 0.02 0.01 0.01 0.01 0.02 0.03 0.03 0.03 0.03 0.02 0.01 0.01 0.01 0.01 0.00 0.01 0.01 0.03 0.03 0.02 0.02 0.02 0.02
0.06 0.05 0.04 0.04 0.05 0.06 0.07 0.06 0.05 0.04 0.03 0.02 0.02 0.03 0.02 0.02 0.02 0.02 0.02 0.01 0.01 0.01 0.02 0.02 0.02 0.02 0.03 0.05 0.06 0.05 0.03 0.01 0.01 0.01 0.01 0.01 0.01 0.02 0.02 0.01 0.02 0.02 0.02
0.04 0.05 0.04 0.02 0.02 0.01 0.01 0.01 0.01 0.01 0.01 0.01 0.01 0.02 0.02 0.02 0.02 0.01 0.01 0.01 0.01 0.02 0.02 0.02 0.01 0.01 0.02 0.03 0.05 0.06 0.05 0.03 0.02 0.01 0.01 0.01 0.02 0.02 0.02 0.02 0.01 0.02 0.02
0.03 0.03 0.03 0.02 0.01 0.01 0.01 0.01 0.01 0.01 0.01 0.01 0.02 0.02 0.02 0.02 0.02 0.02 0.01 0.01 0.01 0.01 0.01 0.01 0.01 0.01 0.01 0.02 0.02 0.03 0.03 0.03 0.03 0.03 0.02 0.01 0.01 0.02 0.02 0.02 0.02 0.02 0.02
0.02 0.02 0.02 0.01 0.00 0.00 0.00 0.01 0.01 0.01 0.01 0.01 0.02 0.02 0.02 0.01 0.01 0.02 0.02 0.02 0.02 0.02 0.02 0.01 0.01 0.01 0.02 0.02 0.02 0.02 0.02 0.01 0.02 0.02 0.03 0.03 0.03 0.03 0.03 0.03 0.03 0.03 0.03
0.01 0.01 0.01 0.00 0.00 0.00 0.00 0.00 0.01 0.01 0.01 0.02 0.02 0.03 0.02 0.02 0.02 0.02 0.02 0.02 0.02 0.02 0.02 0.03 0.03 0.03 0.03 0.02 0.02 0.01 0.01 0.01 0.01 0.01 0.02 0.03 0.03 0.04 0.04 0.04 0.04 0.04 0.04
0.01 0.02 0.01 0.01 0.01 0.00 0.00 0.01 0.01 0.01 0.02 0.02 0.03 0.04 0.04 0.03 0.03 0.03 0.03 0.03 0.03 0.03 0.04 0.04 0.05 0.05 0.03 0.02 0.01 0.01 0.01 0.01 0.01 0.02 0.03 0.04 0.04 0.04 0.04 0.04 0.05 0.05 0.05
0.01 0.02 0.01 0.01 0.01 0.01 0.02 0.02 0.02 0.02 0.02 0.02 0.03 0.03 0.03 0.03 0.03 0.03 0.04 0.04 0.03 0.03 0.03 0.03 0.03 0.03 0.03 0.02 0.02 0.02 0.02 0.02 0.01 0.02 0.02 0.02 0.02 0.03 0.03 0.03 0.04 0.04 0.04
0.02 0.02 0.02 0.02 0.03 0.02 0.02 0.02 0.03 0.03 0.03 0.04 0.04 0.04 0.04 0.04 0.04 0.03 0.03 0.03 0.03 0.03 0.03 0.03 0.03 0.02 0.02 0.02 0.01 0.01 0.01 0.02 0.02 0.01 0.01 0.01 0.01 0.01 0.02 0.03 0.03 0.03 0.04
0.02 0.02 0.03 0.04 0.03 0.03 0.03 0.03 0.04 0.05 0.04 0.03 0.03 0.03 0.03 0.03 0.02 0.02 0.02 0.02 0.02 0.02 0.03 0.03 0.03 0.03 0.03 0.02 0.02 0.01 0.01 0.01 0.01 0.01 0.01 0.01 0.01 0.01 0.01 0.02 0.02 0.02 0.02
0.03 0.02 0.02 0.02 0.03 0.03 0.03 0.04 0.05 0.03 0.02 0.02 0.02 0.02 0.02 0.02 0.03 0.02 0.02 0.02 0.02 0.02 0.02 0.02 0.02 0.02 0.03 0.03 0.03 0.02 0.02 0.02 0.02 0.02 0.02 0.02 0.01 0.02 0.02 0.02 0.02 0.02 0.02
0.02 0.03 0.02 0.02 0.02 0.02 0.02 0.02 0.02 0.01 0.01 0.01 0.01 0.01 0.01 0.01 0.01 0.01 0.01 0.01 0.01 0.01 0.01 0.01 0.01 0.01 0.02 0.02 0.02 0.02 0.02 0.02 0.02 0.02 0.02 0.02 0.02 0.02 0.03 0.03 0.03 0.03 0.02
0.02 0.03 0.02 0.02 0.01 0.01 0.01 0.01 0.01 0.01 0.01 0.01 0.01 0.01 0.01 0.01 0.01 0.01 0.01 0.01 0.01 0.01 0.01 0.01 0.01 0.01 0.01 0.01 0.02 0.02 0.02 0.02 0.02 0.02 0.02 0.02 0.02 0.02 0.03 0.03 0.02 0.02 0.02
0.02 0.03 0.02 0.02 0.02 0.02 0.02 0.02 0.02 0.01 0.00 0.00 0.01 0.02 0.02 0.01 0.01 0.01 0.01 0.01 0.01 0.01 0.01 0.01 0.01 0.01 0.01 0.01 0.02 0.02 0.02 0.02 0.02 0.02 0.02 0.02 0.02 0.02 0.03 0.03 0.02 0.02 0.02
0.04 0.04 0.04 0.04 0.03 0.03 0.03 0.02 0.01 0.01 0.01 0.01 0.01 0.02 0.02 0.02 0.02 0.01 0.01 0.01 0.01 0.01 0.01 0.01 0.01 0.01 0.01 0.01 0.01 0.01 0.02 0.02 0.01 0.02 0.02 0.02 0.03 0.03 0.03 0.02 0.02 0.02 0.02
0.05 0.06 0.06 0.04 0.03 0.03 0.02 0.01 0.01 0.02 0.02 0.02 0.02 0.01 0.01 0.02 0.02 0.01 0.01 0.01 0.01 0.01 0.01 0.01 0.01 0.01 0.01 0.01 0.02 0.02 0.02 0.02 0.02 0.03 0.03 0.03 0.03 0.03 0.03 0.03 0.02 0.03 0.03
0.04 0.05 0.06 0.05 0.03 0.02 0.02 0.02 0.02 0.02 0.01 0.01 0.01 0.01 0.01 0.01 0.01 0.02 0.02 0.02 0.02 0.01 0.01 0.01 0.01 0.01 0.01 0.01 0.02 0.02 0.03 0.03 0.02 0.02 0.03 0.03 0.03 0.04 0.03 0.03 0.03 0.03 0.03
0.06 0.06 0.05 0.04 0.04 0.04 0.03 0.02 0.02 0.02 0.01 0.01 0.01 0.01 0.01 0.01 0.01 0.01 0.02 0.02 0.02 0.02 0.02 0.01 0.01 0.01 0.01 0.01 0.01 0.01 0.02 0.02 0.02 0.02 0.02 0.03 0.03 0.03 0.03 0.03 0.02 0.02 0.02
MSLP
1012.41 1012.96 1013.62 1014.34 1015.04 1015.66 1016.15 1016.50 1016.69 1016.77 1016.76 1016.73 1016.71 1016.73 1016.81 1016.94 1017.11 1017.29 1017.46 1017.59 1017.70 1017.77 1017.83 1017.89 1017.97 1018.08 1018.25 1018.47 1018.74 1019.06 1019.40 1019.77 1020.14 1020.50 1020.85 1021.17 1021.47 1021.73 1021.97 1022.19 1022.37 1022.52 1022.64
1012.26 1012.81 1013.47 1014.19 1014.92 1015.58 1016.11 1016.50 1016.75 1016.86 1016.90 1016.89 1016.88 1016.91 1017.00 1017.13 1017.30 1017.49 1017.67 1017.82 1017.94 1018.02 1018.08 1018.13 1018.19 1018.29 1018.43 1018.63 1018.90 1019.21 1019.56 1019.93 1020.31 1020.68 1021.02 1021.32 1021.59 1021.82 1022.02 1022.19 1022.35 1022.49 1022.63
1012.14 1012.68 1013.34 1014.07 1014.80 1015.46 1016.03 1016.46 1016.75 1016.92 1017.00 1017.04 1017.07 1017.13 1017.23 1017.38 1017.56 1017.76 1017.95 1018.11 1018.24 1018.34 1018.40 1018.46 1018.52 1018.61 1018.74 1018.93 1019.18 1019.48 1019.82 1020.19 1020.55 1020.90 1021.21 1021.47 1021.69 1021.86 1021.99 1022.10 1022.21 1022.31 1022.44
1012.03 1012.58 1013.24 1013.95 1014.66 1015.33 1015.91 1016.37 1016.71 1016.94 1017.09 1017.19 1017.28 1017.38 1017.52 1017.68 1017.87 1018.07 1018.27 1018.44 1018.58 1018.68 1018.76 1018.82 1018.89 1018.98 1019.11 1019.29 1019.52 1019.80 1020.12 1020.45 1020.78 1021.09 1021.35 1021.56 1021.71 1021.82 1021.88 1021.92 1021.96 1022.02 1022.12
1011.93 1012.50 1013.15 1013.84 1014.53 1015.19 1015.78 1016.26 1016.65 1016.95 1017.17 1017.35 1017.50 1017.65 1017.82 1018.00 1018.19 1018.39 1018.57 1018.74 1018.88 1018.99 1019.07 1019.15 1019.23 1019.32 1019.45 1019.62 1019.83 1020.08 1020.36 1020.65 1020.93 1021.18 1021.39 1021.54 1021.63 1021.67 1021.67 1021.66 1021.64 1021.65 1021.71
1011.83 1012.43 1013.07 1013.74 1014.42 1015.05 1015.64 1016.15 1016.58 1016.95 1017.24 1017.49 1017.71 1017.91 1018.10 1018.29 1018.47 1018.65 1018.81 1018.96 1019.09 1019.20 1019.29 1019.38 1019.47 1019.58 1019.71 1019.86 1020.05 1020.27 1020.50 1020.73 1020.96 1021.15 1021.30 1021.40 1021.44 1021.44 1021.40 1021.34 1021.28 1021.25 1021.28
1011.75 1012.38 1013.02 1013.66 1014.30 1014.92 1015.50 1016.03 1016.50 1016.92 1017.28 1017.60 1017.87 1018.10 1018.31 1018.49 1018.66 1018.81 1018.94 1019.06 1019.17 1019.27 1019.37 1019.48 1019.59 1019.71 1019.85 1020.00 1020.16 1020.34 1020.53 1020.71 1020.87 1021.01 1021.11 1021.17 1021.18 1021.14 1021.08 1021.00 1020.93 1020.88 1020.88
1011.69 1012.33 1012.96 1013.58 1014.19 1014.78 1015.34 1015.88 1016.38 1016.84 1017.25 1017.62 1017.93 1018.19 1018.41 1018.58 1018.72 1018.83 1018.93 1019.02 1019.11 1019.21 1019.33 1019.45 1019.58 1019.73 1019.87 1020.03 1020.18 1020.33 1020.47 1020.60 1020.72 1020.81 1020.87 1020.90 1020.89 1020.84 1020.77 1020.69 1020.62 1020.57 1020.56
1011.61 1012.25 1012.87 1013.46 1014.03 1014.59 1015.14 1015.67 1016.18 1016.67 1017.12 1017.52 1017.86 1018.14 1018.35 1018.51 1018.63 1018.72 1018.79 1018.86 1018.95 1019.05 1019.18 1019.34 1019.50 1019.67 1019.84 1020.00 1020.14 1020.27 1020.38 1020.47 1020.54 1020.59 1020.62 1020.63 1020.61 1020.57 1020.51 1020.44 1020.38 1020.33 1020.32
1011.47 1012.10 1012.70 1013.26 1013.79 1014.32 1014.84 1015.37 1015.88 1016.38 1016.85 1017.28 1017.64 1017.93 1018.15 1018.31 1018.41 1018.49 1018.55 1018.63 1018.72 1018.85 1019.00 1019.18 1019.38 1019.58 1019.77 1019.94 1020.08 1020.20 1020.28 1020.34 1020.37 1020.39 1020.40 1020.39 1020.37 1020.33 1020.29 1020.24 1020.19 1020.16 1020.15
1011.23 1011.85 1012.41 1012.94 1013.44 1013.93 1014.43 1014.94 1015.45 1015.95 1016.43 1016.87 1017.25 1017.56 1017.80 1017.97 1018.09 1018.18 1018.26 1018.36 1018.47 1018.63 1018.82 1019.03 1019.26 1019.48 1019.69 1019.86 1020.00 1020.10 1020.16 1020.19 1020.20 1020.19 1020.18 1020.16 1020.14 1020.11 1020.08 1020.05 1020.02 1020.00 1019.99
1010.87 1011.46 1011.99 1012.49 1012.96 1013.42 1013.90 1014.38 1014.89 1015.38 1015.87 1016.32 1016.72 1017.05 1017.32 1017.53 1017.69 1017.82 1017.94 1018.07 1018.23 1018.42 1018.64 1018.88 1019.12 1019.35 1019.56 1019.73 1019.85 1019.93 1019.97 1019.97 1019.96 1019.93 1019.90 1019.88 1019.86 1019.84 1019.82 1019.81 1019.79 1019.79 1019.79
1010.38 1010.95 1011.46 1011.93 1012.38 1012.82 1013.27 1013.74 1014.22 1014.71 1015.19 1015.66 1016.08 1016.45 1016.76 1017.02 1017.23 1017.42 1017.60 1017.78 1017.98 1018.20 1018.43 1018.68 1018.92 1019.14 1019.33 1019.47 1019.56 1019.61 1019.62 1019.60 1019.57 1019.53 1019.49 1019.47 1019.46 1019.45 1019.45 1019.46 1019.46 1019.47 1019.49
1009.84 1010.38 1010.88 1011.33 1011.76 1012.18 1012.61 1013.05 1013.51 1013.98 1014.46 1014.93 1015.37 1015.77 1016.13 1016.45 1016.73 1016.98 1017.22 1017.45 1017.68 1017.91 1018.14 1018.37 1018.58 1018.76 1018.90 1018.99 1019.04 1019.06 1019.04 1019.00 1018.96 1018.92 1018.89 1018.88 1018.88 1018.90 1018.92 1018.95 1018.98 1019.01 1019.05
1009.31 1009.84 1010.32 1010.77 1011.18 1011.58 1011.98 1012.39 1012.82 1013.27 1013.73 1014.18 1014.63 1015.06 1015.46 1015.83 1016.17 1016.48 1016.76 1017.02 1017.27 1017.50 1017.70 1017.88 1018.03 1018.14 1018.22 1018.25 1018.25 1018.22 1018.18 1018.14 1018.10 1018.07 1018.07 1018.08 1018.11 1018.16 1018.22 1018.28 1018.35 1018.42 1018.49
1008.91 1009.42 1009.90 1010.33 1010.72 1011.10 1011.46 1011.83 1012.22 1012.62 1013.04 1013.47 1013.91 1014.34 1014.76 1015.16 1015.54 1015.88 1016.19 1016.46 1016.70 1016.89 1017.04 1017.16 1017.23 1017.26 1017.26 1017.23 1017.18 1017.12 1017.07 1017.03 1017.02 1017.03 1017.06 1017.12 1017.20 1017.29 1017.40 1017.51 1017.62 1017.73 1017.85
1008.69 1009.19 1009.65 1010.06 1010.43 1010.77 1011.08 1011.40 1011.72 1012.05 1012.41 1012.80 1013.20 1013.61 1014.02 1014.43 1014.81 1015.16 1015.46 1015.72 1015.92 1016.07 1016.16 1016.19 1016.18 1016.14 1016.06 1015.98 1015.90 1015.83 1015.79 1015.79 1015.81 1015.88 1015.97 1016.09 1016.23 1016.38 1016.54 1016.70 1016.85 1017.01 1017.18
1008.67 1009.14 1009.57 1009.95 1010.28 1010.57 1010.83 1011.07 1011.31 1011.57 1011.85 1012.16 1012.49 1012.86 1013.23 1013.61 1013.97 1014.30 1014.58 1014.80 1014.95 1015.04 1015.06 1015.03 1014.95 1014.84 1014.73 1014.62 1014.53 1014.48 1014.48 1014.52 1014.61 1014.75 1014.92 1015.11 1015.31 1015.52 1015.73 1015.93 1016.13 1016.33 1016.54
1008.79 1009.22 1009.61 1009.94 1010.22 1010.44 1010.62 1010.78 1010.93 1011.09 1011.28 1011.51 1011.77 1012.06 1012.38 1012.70 1013.01 1013.30 1013.53 1013.71 1013.82 1013.85 1013.82 1013.74 1013.62 1013.49 1013.36 1013.25 1013.20 1013.19 1013.25 1013.37 1013.54 1013.76 1014.00 1014.26 1014.52 1014.78 1015.02 1015.26 1015.49 1015.73 1015.96
1008.95 1009.32 1009.65 1009.91 1010.12 1010.27 1010.38 1010.45 1010.51 1010.58 1010.68 1010.81 1010.98 1011.20 1011.44 1011.70 1011.95 1012.19 1012.38 1012.51 1012.57 1012.57 1012.51 1012.41 1012.29 1012.16 1012.06 1012.00 1012.00 1012.07 1012.22 1012.42 1012.68 1012.97 1013.28 1013.59 1013.90 1014.19 1014.46 1014.71 1014.95 1015.19 1015.43
1009.04 1009.33 1009.57 1009.77 1009.90 1009.97 1010.01 1010.00 1009.99 1009.98 1009.99 1010.04 1010.13 1010.27 1010.44 1010.63 1010.83 1011.01 1011.15 1011.25 1011.29 1011.27 1011.22 1011.13 1011.03 1010.95 1010.91 1010.93 1011.01 1011.17 1011.41 1011.70 1012.03 1012.39 1012.75 1013.10 1013.43 1013.72 1013.98 1014.22 1014.45 1014.68 1014.92
1008.97 1009.16 1009.31 1009.42 1009.49 1009.50 1009.46 1009.40 1009.33 1009.26 1009.21 1009.20 1009.23 1009.30 1009.41 1009.55 1009.69 1009.83 1009.94 1010.01 1010.04 1010.03 1010.00 1009.95 1009.91 1009.90 1009.94 1010.05 1010.22 1010.48 1010.80 1011.16 1011.56 1011.97 1012.36 1012.71 1013.03 1013.31 1013.54 1013.75 1013.95 1014.14 1014.36
1008.68 1008.77 1008.84 1008.88 1008.88 1008.84 1008.77 1008.67 1008.56 1008.46 1008.38 1008.33 1008.32 1008.35 1008.42 1008.51 1008.62 1008.72 1008.81 1008.87 1008.90 1008.92 1008.92 1008.92 1008.95 1009.01 1009.14 1009.34 1009.60 1009.93 1010.32 1010.75 1011.18 1011.60 1012.00 1012.34 1012.63 1012.86 1013.06 1013.22 1013.36 1013.52 1013.70
1008.24 1008.24 1008.23 1008.21 1008.16 1008.09 1007.99 1007.88 1007.77 1007.66 1007.58 1007.52 1007.49 1007.50 1007.54 1007.61 1007.68 1007.76 1007.83 1007.88 1007.93 1007.96 1008.00 1008.05 1008.14 1008.28 1008.48 1008.75 1009.08 1009.47 1009.90 1010.35 1010.80 1011.21 1011.58 1011.89 1012.14 1012.32 1012.46 1012.57 1012.66 1012.77 1012.91
1007.75 1007.67 1007.60 1007.53 1007.45 1007.36 1007.27 1007.16 1007.06 1006.97 1006.90 1006.85 1006.82 1006.83 1006.85 1006.90 1006.95 1007.00 1007.06 1007.10 1007.15 1007.20 1007.27 1007.36 1007.49 1007.68 1007.93 1008.24 1008.61 1009.03 1009.48 1009.92 1010.35 1010.74 1011.07 1011.34 1011.53 1011.66 1011.74 1011.79 1011.84 1011.91 1012.01
1007.33 1007.19 1007.07 1006.97 1006.87 1006.78 1006.69 1006.61 1006.53 1006.47 1006.42 1006.38 1006.37 1006.37 1006.39 1006.42 1006.45 1006.49 1006.52 1006.56 1006.60 1006.65 1006.73 1006.84 1007.00 1007.21 1007.49 1007.82 1008.19 1008.61 1009.03 1009.46 1009.85 1010.19 1010.47 1010.68 1010.82 1010.90 1010.93 1010.94 1010.95 1010.97 1011.04
Thickness
5787 5783 5779 5775 5772 5768 5764 5762 5760 5758 5756 5754 5752 5750 5748 5745 5744 5741 5740 5737 5735 5732 5730 5728 5725 5724 5722 5721 5719 5716 5713 5710 5702 5699 5697 5694 5690 5687 5685 5682 5681 5678 5675
5786 5782 5778 5774 5771 5766 5763 5760 5757 5755 5754 5752 5750 5747 5745 5743 5741 5739 5737 5735 5732 5729 5727 5724 5722 5721 5717 5716 5714 5712 5709 5706 5701 5694 5691 5689 5685 5683 5680 5678 5677 5674 5671
5785 5779 5776 5772 5768 5764 5761 5757 5755 5752 5750 5749 5747 5744 5741 5739 5737 5735 5733 5731 5729 5726 5724 5721 5719 5716 5713 5712 5709 5708 5706 5704 5699 5694 5689 5685 5682 5679 5676 5673 5672 5669 5667
5783 5778 5774 5770 5767 5763 5759 5755 5752 5750 5747 5744 5742 5740 5737 5735 5733 5731 5728 5726 5724 5722 5719 5717 5715 5712 5709 5707 5705 5702 5701 5698 5695 5692 5687 5682 5679 5675 5672 5670 5667 5665 5663
5781 5776 5772 5769 5764 5760 5756 5753 5750 5747 5745 5741 5738 5735 5733 5731 5729 5726 5724 5722 5718 5716 5714 5712 5710 5707 5703 5702 5702 5699 5696 5693 5691 5688 5683 5679 5675 5671 5670 5668 5664 5661 5658
5777 5773 5769 5764 5760 5755 5752 5749 5745 5742 5740 5737 5734 5730 5728 5726 5720 5718 5717 5716 5714 5711 5709 5707 5705 5702 5698 5695 5692 5690 5688 5687 5685 5682 5679 5675 5670 5669 5666 5664 5661 5657 5652
5771 5767 5763 5760 5755 5751 5749 5744 5740 5737 5734 5730 5728 5725 5721 5716 5712 5710 5709 5710 5709 5706 5704 5702 5702 5700 5696 5693 5688 5684 5682 5679 5676 5676 5674 5670 5667 5664 5661 5658 5654 5652 5648
5767 5763 5759 5756 5751 5747 5743 5739 5735 5733 5729 5725 5721 5719 5715 5711 5706 5704 5703 5704 5703 5700 5698 5695 5693 5691 5689 5686 5685 5682 5679 5676 5673 5670 5668 5665 5662 5659 5656 5653 5650 5646 5643
5762 5759 5755 5752 5747 5742 5737 5734 5731 5727 5723 5719 5716 5713 5710 5705 5700 5698 5696 5699 5696 5694 5692 5689 5686 5683 5678 5676 5677 5675 5673 5670 5666 5663 5660 5658 5654 5651 5649 5648 5645 5642 5639
5758 5755 5751 5747 5742 5737 5733 5729 5725 5721 5718 5715 5711 5708 5705 5701 5694 5692 5689 5695 5691 5689 5686 5683 5677 5674 5670 5669 5670 5669 5666 5664 5662 5659 5654 5651 5649 5646 5643 5641 5641 5638 5636
5754 5749 5745 5741 5737 5732 5727 5723 5720 5717 5713 5710 5706 5703 5699 5695 5689 5686 5683 5687 5686 5683 5681 5678 5673 5666 5663 5661 5661 5662 5659 5656 5656 5654 5651 5649 5646 5642 5640 5636 5634 5633 5630
5748 5743 5739 5735 5732 5727 5721 5717 5715 5711 5707 5704 5700 5697 5695 5690 5685 5680 5677 5675 5674 5675 5674 5672 5666 5659 5656 5654 5653 5651 5650 5648 5650 5648 5646 5644 5642 5638 5635 5631 5627 5624 5622
5740 5736 5732 5728 5725 5721 5716 5712 5709 5706 5704 5701 5698 5695 5692 5689 5682 5675 5671 5668 5665 5666 5666 5660 5656 5652 5649 5648 5645 5644 5643 5644 5644 5642 5640 5638 5636 5632 5629 5625 5622 5618 5615
5732 5728 5725 5721 5718 5714 5710 5708 5706 5703 5700 5696 5694 5690 5687 5683 5679 5674 5670 5665 5660 5659 5658 5654 5649 5646 5645 5642 5641 5640 5639 5638 5637 5636 5634 5632 5630 5626 5623 5621 5618 5615 5611
5724 5721 5718 5715 5711 5707 5704 5701 5699 5696 5693 5689 5688 5685 5681 5677 5670 5663 5662 5661 5658 5655 5651 5650 5649 5646 5644 5641 5639 5637 5634 5632 5630 5628 5626 5624 5622 5619 5617 5614 5611 5609 5607
5715 5713 5712 5709 5704 5701 5696 5692 5685 5683 5678 5675 5673 5671 5670 5664 5659 5655 5652 5649 5646 5643 5642 5645 5644 5642 5639 5636 5633 5630 5628 5626 5624 5622 5620 5618 5615 5613 5611 5608 5606 5603 5601
5708 5706 5704 5701 5698 5693 5690 5686 5681 5674 5668 5666 5663 5660 5658 5654 5650 5647 5643 5641 5638 5635 5638 5640 5638 5636 5633 5631 5628 5625 5622 5619 5617 5615 5613 5612 5610 5608 5605 5603 5600 5598 5596
5699 5696 5694 5691 5689 5686 5683 5680 5677 5674 5669 5664 5657 5652 5649 5646 5642 5639 5636 5633 5635 5632 5636 5636 5633 5630 5627 5625 5622 5619 5616 5614 5611 5609 5607 5605 5604 5602 5599 5597 5595 5591 5590
5690 5687 5685 5683 5680 5677 5675 5672 5670 5667 5664 5660 5657 5649 5642 5639 5635 5632 5629 5633 5636 5634 5633 5630 5627 5624 5621 5618 5615 5612 5609 5607 5604 5602 5600 5598 5597 5595 5593 5591 5589 5584 5581
5680 5676 5673 5673 5672 5669 5666 5664 5661 5659 5657 5654 5652 5649 5642 5638 5636 5632 5629 5631 5631 5629 5627 5624 5620 5617 5614 5611 5608 5605 5603 5600 5598 5596 5594 5592 5590 5588 5586 5584 5582 5580 5578
5671 5667 5663 5663 5663 5661 5658 5656 5653 5651 5649 5648 5646 5643 5636 5637 5635 5632 5629 5627 5625 5623 5621 5618 5615 5611 5607 5604 5601 5599 5597 5595 5592 5590 5588 5585 5583 5581 5579 5577 5576 5574 5572
5662 5660 5657 5656 5655 5652 5650 5648 5646 5644 5643 5641 5638 5634 5626 5628 5629 5627 5624 5621 5618 5616 5614 5611 5609 5605 5601 5598 5595 5593 5591 5589 5586 5583 5581 5578 5575 5573 5571 5570 5568 5566 5564
5652 5651 5649 5647 5646 5642 5641 5641 5640 5638 5636 5633 5631 5628 5624 5622 5621 5619 5617 5615 5612 5609 5606 5604 5601 5599 5595 5592 5589 5586 5585 5583 5579 5576 5573 5571 5569 5566 5564 5561 5559 5558 5557
5644 5642 5640 5639 5638 5637 5635 5634 5632 5630 5628 5625 5623 5621 5619 5616 5614 5612 5611 5609 5606 5602 5599 5596 5594 5592 5588 5585 5582 5579 5577 5574 5571 5568 5565 5563 5560 5558 5556 5554 5552 5551 5550
5636 5634 5633 5631 5630 5628 5627 5626 5624 5622 5620 5618 5616 5614 5612 5610 5608 5606 5603 5601 5598 5595 5592 5589 5587 5584 5581 5578 5574 5571 5567 5564 5560 5558 5556 5554 5552 5550 5548 5546 5544 5543 5541
5629 5627 5626 5624 5623 5621 5618 5617 5616 5614 5611 5609 5607 5605 5603 5602 5600 5597 5595 5592 5590 5587 5584 5582 5580 5577 5574 5570 5566 5562 5558 5555 5551 5548 5546 5546 5545 5542 5540 5538 5536 5535 5534